Regional Weather Roundup
Issued by NWS Wakefield, VA

Home | Current Version | Previous Version | Text Only | Print | Product List | Glossary Off
Versions: 1 2 3 4 5 6 7 8 9 10 11 12 13 14 15 16 17 18 19 20 21 22 23 24 25 26 27 28 29 30 31 32 33 34 35 36 37 38 39 40 41 42 43 44 45 46 47 48 49 50

000
ASUS41 KAKQ 211510
RWRAKQ

REGIONAL WEATHER ROUNDUP
NATIONAL WEATHER SERVICE WAKEFIELD VA
1100 AM EDT MON JUL 21 2014

Note: "fair" indicates few or no clouds below 12,000 feet with no
significant weather and/or obstructions to visibility. * = Denotes
station may not report precipitation (e.g., rain,snow,etc.),
thunder or fog.

VAZ042-051-052>054-056-211600-
NORTHERN VIRGINIA

CITY           SKY/WX    TMP DP  RH WIND       PRES   REMARKS
WASH NATIONAL  PTSUNNY   79  64  60 CALM      30.19F
DULLES         CLOUDY    74  65  73 SE7       30.20S
FORT BELVOIR   CLOUDY    76  66  70 E5        30.20S
QUANTICO       CLOUDY    77  68  73 E3        30.20R
FREDERICKSBRG* CLOUDY    78  70  75 CALM      30.17S
STAFFORD*      CLOUDY    77  72  84 SE6       30.23R
WARRENTON      CLOUDY    78  74  88 S5        30.19R
CULPEPER*      PTSUNNY  N/A N/A N/A SE3       30.19S
MANASSAS*      PTSUNNY   75  70  83 CALM      30.19F
LEESBURG*      CLOUDY    73  68  83 CALM      30.21S
WINCHESTER     CLOUDY    77  70  78 SE6       30.19S
$$

VAZ048-049-060>072-079>083-211600-
CENTRAL AND SOUTH CENTRAL VIRGINIA...AND NORTH CENTRAL NORTH CAROLINA

CITY           SKY/WX    TMP DP  RH WIND       PRES   REMARKS
RICHMOND       LGT RAIN  74  70  87 CALM      30.19R FOG
CHESTERFIELD*  CLOUDY    72  63  73 E3        30.20R
HANOVER        CLOUDY    76  69  79 CALM      30.20R
TAPPAHANNOCK*  PTSUNNY   78  66  67 NE6       30.19S
CHARLOTTSVILLE CLOUDY    75  69  81 N5        30.19S
ORANGE*        CLOUDY    79  70  73 CALM      30.20S
LOUISA*        CLOUDY    77  70  78 E3        30.18S
FARMVILLE*     CLOUDY    73  72  94 N3        30.17R FOG
SOUTH HILL*    CLOUDY    73  73 100 CALM      30.22S FOG
ROANOKE RAPIDS CLOUDY    82  72  69 SE5       30.16S
RALEIGH        CLOUDY    77  72  84 NE5       30.15R
$$

VAZ088>098-211600-
SOUTHEAST VIRGINIA

CITY           SKY/WX    TMP DP  RH WIND       PRES   REMARKS
NORFOLK        CLOUDY    77  70  79 E6        30.18R
VIRGINIA BEACH CLOUDY    77  70  79 E6        30.17R
NORFOLK NAVAL  CLOUDY    78  72  81 NE8       30.19R
WEST POINT*    CLOUDY    79  69  73 NE3       30.20R
NEWPORT NEWS   CLOUDY    81  71  71 E7        30.18R
LANGLEY AFB    CLOUDY    77  72  84 SE8       30.18R
FORT EUSTIS    PTSUNNY   79  72  78 VRB5      30.16R
WILLIAMSBURG*  CLOUDY    79  73  83 E3        30.19R
FRANKLIN*      CLOUDY    75  72  88 E3        30.17S
WAKEFIELD      CLOUDY    76  70  82 SE5       30.18R
$$

VAZ020-022-025-037-045-211600-
WESTERN AND SOUTHWEST VIRGINIA

CITY           SKY/WX    TMP DP  RH WIND       PRES   REMARKS
STAUNTON*      CLOUDY    74  63  69 CALM      30.23S
HOT SPRINGS VA FOG       62  61  96 SE3       30.33R VSB 3/4
LYNCHBURG      CLOUDY    72  69  90 N8        30.21R
DANVILLE       CLOUDY    76  70  82 NE6       30.16F
MARTINSVILLE   CLOUDY    77  70  80 NE7       30.20S
ROANOKE        LGT RAIN  70  67  90 CALM      30.23R FOG
BLACKSBURG       N/A    N/A N/A N/A MISG      30.26R
DUBLIN*        CLOUDY    74  69  82 NE6       30.24R
MARION*        CLOUDY    73  68  84 E6        30.25R
HILLSVILLE*    PTSUNNY   73  65  74 CALM      30.24S
RICHLANDS*     MOSUNNY   77  67  70 CALM      30.22S
WISE*          MOSUNNY   75  63  64 S3        30.23S
ABINGDON*      MOSUNNY   78  67  69 E6        30.19S
$$

MDZ021>025-VAZ099-100-211600-
SOUTHERN MARYLAND AND THE DELMARVA PENINSULA

CITY           SKY/WX    TMP DP  RH WIND       PRES   REMARKS
PATUXENT RIVER CLOUDY    74  68  81 VRB6      30.19R
BAY BRIDGE APT   N/A     77  64  65 E5        30.19S
LEONARDTOWN    PTSUNNY   73  66  78 E5        30.21R
DOVER          SUNNY     75  68  77 E6        30.18F
GEORGETOWN     CLOUDY    76  66  71 E12       30.20S
EASTON         MOSUNNY   77  68  73 CALM      30.23S
CAMBRIDGE      PTSUNNY   77  68  73 CALM      30.19S
SALISBURY      NOT AVBL
OCEAN CITY     PTSUNNY   75  68  78 NE7       30.19S
WALLOPS ISLAND PTSUNNY   77  68  73 E8        30.19S
ACCOMACK*        N/A     77  66  69 E5        30.18R
$$

NCZ012>017-030>032-211600-
EASTERN NORTH CAROLINA

CITY           SKY/WX    TMP DP  RH WIND       PRES   REMARKS
ELIZABETH CITY PTSUNNY   81  71  71 E9        30.17R
AHOSKIE*       CLOUDY    80  70  72 CALM      30.16S
EDENTON*       CLOUDY    79  72  79 E6        30.16R
CURRITUCK*     CLOUDY    81  70  68 E6        30.18R
KILL DEVIL HLS MOSUNNY   79  72  78 E5        30.16S
MANTEO         NOT AVBL
CAPE HATTERAS  PTSUNNY   84  73  69 E13G20    30.15S
GOLDSBORO      PTSUNNY   83  75  78 SE6       30.12R
WASHINGTON     PTSUNNY   81  74  78 SE6       30.14S
GREENVILLE     CLOUDY    82  73  74 E5        30.16R
NEW BERN       CLOUDY    83  75  77 SE5       30.14S
WILMINGTON     LGT RAIN  78  72  81 W10       30.13R
$$

VAZ048-211600-
ELSEWHERE

CITY           SKY/WX    TMP DP  RH WIND       PRES   REMARKS
HARRISBURG PA  CLOUDY    75  66  73 SE3       30.20S
BALTIMORE      PTSUNNY   78  62  57 E5        30.19S
ANNAPOLIS      SUNNY     75  66  73 SE7       30.19S
ANDREWS AFB    PTSUNNY   77  67  70 E6        30.20S
WILMINGTON DE  SUNNY     77  62  59 SE6       30.20F
PHILADELPHIA   MOSUNNY   79  58  48 E6        30.20S
WILDWOOD NJ*   SUNNY     75  64  69 E9        30.20S
ATLANTIC CITY  MOSUNNY   76  63  64 NE9       30.20S
HENDERSON NC   LGT RAIN  70  68  93 E7        30.19R
GREENSBORO     CLOUDY    77  71  82 NE6       30.16R
ROCKY MOUNT    CLOUDY    80  73  79 E3        30.15S
FAYETTEVILLE   TSTM      75  73  93 E8        30.13R
CHARLOTTE      TSTM      74  71  91 NW3       30.13S FOG
$$

VAZ100-211600-
MARINE

STATION/POSITION TIME  TEMP    WIND        PRES    WAVE   SWELL
                       AIR SEA DIR/SP/G            HT/PER HT/PER
                 (UTC) (F)     (DEG/KT/KT) (MB)    (FT/S) (FT/S)
44066 TX TWR #4  1500   69 72  360/ 12/ 14 1021.6S   4/ 6   3/ 7
CAPE MAY NJ      1500   74 73  100/ 10/ 13 1022.0S
15NM E FENWICK I 1500   72 74              1022.1F   4/ 8
OCEAN-CITY-INLET 1500   72 69   20/  5/  8 1022.0F
WACHAPREAGUE VA  1500   74 77   60/  8/  9 1021.9R
THOMAS POINT MD  1500   73 79  170/  5/  6 1023.0S
GOOSES REEF MD   1500   73      90/  2/  4 1022.9R
COVE POINT MD    1500   72     140/  3/  4 1022.3R
SOLOMONS ISLAND  1500      80                N/A
BISHOPS HEAD MD  1500   72 76   90/  4/  5 1022.0R
PINEY POINT MD   1500          130/  7/  7   N/A
POTOMAC MD       1500   74     110/  6/  6 1021.5R
CAMBRIDGE MD     1500   73 80   40/  4/  6 1022.1S
LEWISETTA VA     1500   74 79   80/  7/  8 1021.9R
RAPPAHANNOCK LGT 1500           30/  3/  4 1022.6R
STINGRAY PT      1500   75      70/  4/  6 1021.3R
YORK RVR RNG VA  1500   75     110/  5/  6 1021.5R
YORKTOWN VA      1500   77 80   80/  5/  7 1021.7R
JAMESTOWN VA     1500   75     110/  4/  8   N/A
DOMINION TERM VA 1500   75      90/  7/ 10 1022.0R
KIPTOPEKE VA     1500      78   90/  7/ 10   N/A
CHES BAY BRIDGE  1500   74 76   60/  8/  9 1021.5R
CAPE HENRY VA    1500   74      80/  7/  7 1020.7R
WILLOUBY STN VA  1500           90/  8/ 10 1021.2R
S CRANEY ISL VA  1500           30/  5/  6 1021.9R
CAPE HENRY BUOY  1500      76                N/A     3/ 8
1ST LANDING BUOY 1500   74      70/  6/  8 1021.6R
CAPE CHARLES BUO 1500      74                N/A     3/ 7
OFFSHORE WE BUOY 1500      76                N/A     3/ 8
64NM E OF VA BCH 1500   75 77   50/  6/  6 1021.4R   3/ 8   3/ 8
DUCK PIER NC     1500   78 76   90/  9/ 11 1020.9R
44056 DUCK FRF   1500                        N/A     3/ 6
OREGON INLET NC  1500   77 78   70/  6/  8 1021.4R
HATTERAS NC      1500   79 80  100/  8/ 15 1021.3R
DIAMOND SHLS NC  1500          VRB 12/ 14  1020.5F   3/ 8   3/ 8
CAPE LOOKOUT NC  1500   80      90/  8/  9 1020.2R
$$



USA.gov is the U.S. government's official web portal to all federal, state and local government web resources and services.